GEFSCGP_500_meanwind_030.txt.gz
Wind_Speed
7 6 6 8 8 9 9 8 10 13 14 15 17 18 18 18 17 17 18 19 21 23 25 28 30 33 34 36 36 36 36 35 34 33 33 33 33 33 33 33 31 30 27 25
4 5 8 7 7 7 7 7 10 12 13 14 15 16 16 16 17 17 19 20 22 25 27 29 31 32 34 34 34 35 35 35 35 34 34 35 35 35 35 34 33 31 28 26
4 8 7 7 7 6 7 6 10 11 11 11 12 13 13 15 16 17 19 20 22 24 26 28 30 32 33 33 34 35 36 37 37 37 37 37 37 37 37 37 35 34 32 29
6 7 7 7 7 5 7 8 9 10 10 10 9 13 13 15 16 18 20 22 23 25 27 29 32 34 35 36 36 37 38 39 39 40 40 41 41 41 40 39 39 37 36 34
5 5 5 6 7 5 8 7 8 9 9 10 10 12 16 16 19 20 22 24 26 28 30 32 34 35 36 37 38 39 39 41 42 42 43 44 44 44 43 42 41 40 39 38
2 3 4 4 5 5 6 7 8 10 11 12 14 14 19 18 20 23 24 26 28 30 32 34 34 35 36 37 39 40 41 42 44 45 46 46 46 46 46 45 45 44 43 42
3 2 2 3 5 6 7 8 9 11 11 14 19 18 19 20 22 24 26 28 29 31 32 33 34 35 37 38 40 41 42 43 44 45 45 45 45 45 45 45 45 45 46 46
3 4 4 4 6 8 8 8 9 10 12 16 20 19 19 21 22 24 25 28 29 31 33 34 35 37 38 39 40 41 42 42 42 42 42 42 42 42 42 43 44 44 45 47
3 5 6 6 7 8 9 9 10 11 13 13 17 18 18 21 23 24 26 28 29 31 33 35 37 38 40 40 41 41 41 40 40 40 40 39 40 40 40 41 42 44 46 47
5 7 7 7 7 7 8 9 9 8 10 11 16 19 20 21 23 25 27 28 30 32 35 37 38 40 41 41 41 40 40 40 39 39 39 39 40 41 42 44 45 46 48 49
6 7 7 7 6 6 6 7 7 8 10 12 13 19 20 22 24 26 28 30 32 34 36 37 39 40 41 41 41 40 40 40 39 39 39 40 42 44 45 47 48 49 51 52
6 6 7 7 7 6 7 7 8 10 12 13 15 19 20 22 24 27 29 31 33 35 37 39 40 41 42 41 41 41 41 40 39 40 41 42 44 46 48 50 51 53 54 55
6 6 8 9 9 9 8 9 10 11 13 15 16 21 21 23 26 28 30 33 35 37 39 40 42 43 42 42 42 42 41 40 40 41 43 45 47 49 52 54 55 56 57 58
6 6 6 7 9 11 11 12 13 14 15 17 18 21 23 26 29 31 33 35 37 39 40 42 43 43 43 42 42 42 41 41 41 44 46 48 50 52 54 56 57 57 57 57
7 8 9 10 12 13 14 15 15 16 16 18 20 23 25 28 31 33 34 36 39 40 42 43 44 44 43 43 43 42 41 41 43 46 49 50 52 53 56 58 59 59 57 56
8 9 11 13 14 16 16 16 17 17 18 20 22 24 27 29 32 34 36 38 40 42 43 44 45 45 44 44 43 42 41 42 45 48 50 52 54 55 57 57 58 56 54 52
11 12 13 14 16 17 16 16 17 18 20 22 25 27 29 31 33 36 38 40 42 43 45 45 46 46 45 45 44 43 42 44 47 50 52 54 55 56 56 55 53 51 48 46
12 13 15 16 17 17 17 17 17 18 21 24 26 29 31 32 34 37 39 41 42 44 45 47 47 47 46 46 45 44 44 46 49 51 52 54 55 55 54 52 49 47 44 41
13 15 16 18 19 18 17 17 18 20 21 25 27 29 31 33 36 38 40 42 44 46 47 49 49 48 47 46 45 45 45 47 49 51 53 53 54 53 52 49 46 42 38 35
15 16 18 19 19 19 19 19 20 22 24 26 28 30 33 35 36 39 42 43 45 47 48 49 50 49 48 46 45 45 46 48 49 51 52 53 52 51 50 47 42 38 34 30
17 17 18 19 20 21 20 21 23 25 27 28 30 32 35 37 39 41 42 44 46 47 49 50 50 50 48 46 45 45 46 48 49 51 52 52 51 50 48 45 40 35 31 26
18 19 19 19 20 22 22 23 24 25 27 29 31 33 36 38 41 42 44 46 47 48 49 50 49 49 48 46 45 45 46 47 49 50 50 50 49 48 46 42 38 33 28 23
18 19 20 20 21 22 23 24 25 26 28 30 32 34 37 40 42 44 46 47 48 49 49 49 49 48 47 46 45 44 45 47 48 49 49 49 48 47 44 40 35 31 26 19
20 19 20 20 21 22 23 25 26 27 29 31 33 35 38 41 43 46 48 48 48 48 49 49 48 48 47 46 45 44 44 45 47 48 47 47 46 45 42 38 34 30 24 17
21 20 20 20 21 22 23 25 26 28 29 31 34 37 39 42 45 47 49 49 49 48 49 49 48 47 46 45 44 43 43 44 45 46 46 45 44 43 39 35 31 28 23 18
21 20 20 20 21 22 24 25 27 29 31 33 36 39 41 44 46 48 48 49 49 48 48 48 47 47 46 44 43 42 41 43 43 44 44 43 42 41 38 34 30 26 22 18

GEFSCGP_500_meanwind_036.txt.gz
Wind_Speed
4 0 4 8 9 9 10 11 12 7 10 14 20 23 22 21 20 18 17 17 17 18 20 22 23 25 27 29 31 32 34 36 37 37 37 37 37 37 38 36 36 36 36 37
3 10 7 5 5 9 10 11 14 18 20 20 19 19 18 16 15 15 16 16 17 18 20 22 23 25 27 29 31 32 34 35 36 36 36 36 37 37 38 38 37 37 37 38
10 7 2 3 8 10 11 15 18 19 18 15 13 15 13 11 11 12 14 15 17 19 20 22 24 26 29 30 32 33 34 35 36 37 37 37 38 38 39 39 39 38 39 40
7 7 6 6 8 9 13 15 15 13 15 12 15 19 13 8 8 12 15 18 20 21 22 24 26 28 30 31 33 33 34 35 37 38 39 39 40 40 40 41 41 41 41 41
3 5 7 6 7 8 10 11 12 14 16 19 24 22 12 10 11 15 17 20 21 22 24 25 27 28 30 32 33 35 35 36 37 39 40 41 41 41 42 42 42 41 41 42
1 3 5 5 5 7 8 10 14 18 21 23 21 16 10 11 17 20 20 21 22 23 24 26 27 29 30 32 34 35 37 37 39 40 41 42 41 41 41 41 41 41 41 42
4 2 4 5 6 9 6 8 15 21 24 22 17 14 11 15 21 23 24 24 24 25 26 27 28 30 32 34 35 36 37 38 40 40 41 41 41 40 40 40 41 41 41 41
9 5 6 8 9 9 7 8 13 17 21 25 19 17 18 19 20 21 23 24 25 26 27 29 30 32 33 34 36 37 38 39 40 40 40 40 40 40 40 40 41 41 41 41
9 8 11 11 9 9 8 8 10 10 12 16 20 21 20 20 20 21 23 24 25 27 28 30 31 33 34 36 37 38 39 39 40 40 39 40 40 40 40 40 41 41 41 41
8 7 8 12 9 9 9 8 7 4 8 8 13 20 21 22 22 23 24 25 27 28 30 31 32 34 36 37 38 39 40 40 40 40 40 40 40 40 40 40 41 41 42 42
9 5 4 8 11 10 9 9 8 6 7 6 9 22 22 22 23 24 26 27 29 30 31 32 34 35 37 38 40 41 41 41 41 40 40 40 40 40 40 41 42 42 43 44
8 5 3 6 9 9 10 10 10 10 10 9 9 22 23 23 24 26 27 28 29 31 32 34 35 37 38 40 41 42 42 42 42 42 42 41 41 40 40 41 42 43 44 46
9 6 4 8 9 9 11 13 13 12 11 10 10 21 26 27 27 29 29 30 31 32 33 35 36 38 39 41 42 43 44 44 43 43 43 42 41 41 42 43 44 45 47 49
9 8 6 6 9 10 11 14 16 14 13 13 16 20 25 26 27 28 30 31 32 34 35 37 38 40 41 42 43 44 44 44 44 44 43 43 42 42 43 45 46 47 48 50
9 8 9 9 11 12 13 14 16 16 16 16 18 21 25 26 27 29 30 32 33 35 37 39 41 42 42 43 44 45 45 45 45 44 44 43 42 43 44 45 46 48 49 51
12 11 11 9 9 13 14 15 16 17 18 18 20 23 26 27 28 30 31 33 35 37 39 40 42 42 43 43 44 45 46 46 45 45 44 43 43 44 45 46 47 48 50 50
13 12 10 8 8 11 14 16 18 19 20 22 23 24 26 27 28 30 31 34 36 38 40 41 42 43 44 44 45 46 46 46 46 45 45 44 44 44 45 46 48 49 49 49
11 11 10 9 8 9 15 17 18 20 21 22 23 25 27 28 31 32 32 35 37 40 41 43 44 44 45 45 46 47 47 47 46 46 45 44 44 44 45 47 48 49 47 46
15 14 13 13 11 10 15 20 18 20 23 21 23 24 26 28 32 35 36 39 41 42 43 44 45 45 45 45 46 46 47 47 46 45 44 44 44 44 45 47 48 47 45 44
19 18 17 16 15 13 15 19 19 23 26 24 25 26 27 29 30 34 37 40 41 43 43 44 45 46 46 46 46 47 47 47 46 45 44 43 43 45 45 46 46 44 42 41
23 21 20 20 19 18 23 21 23 25 27 26 27 28 28 29 31 34 37 40 41 42 44 45 46 47 47 47 46 47 47 47 46 44 43 43 43 44 45 46 44 42 40 39
20 19 21 22 21 23 27 26 26 26 25 26 27 27 28 30 32 35 38 40 41 42 44 45 46 47 48 48 47 47 47 47 45 44 43 42 43 44 45 44 42 39 38 37
19 20 21 21 23 27 29 28 27 27 26 26 26 27 29 31 34 36 38 40 41 42 43 45 46 47 48 48 48 48 47 46 45 43 42 41 42 43 44 42 39 38 37 35
20 25 24 21 21 26 28 28 28 27 27 27 27 28 30 32 34 36 38 40 41 42 43 44 46 47 48 48 49 48 47 46 44 43 42 41 41 42 42 40 38 37 35 32
21 25 26 25 25 26 27 27 27 27 27 27 28 30 31 33 35 37 38 40 41 42 43 44 45 47 48 49 49 48 47 46 44 43 41 40 41 42 41 39 37 35 33 31
24 26 27 26 26 28 27 28 28 27 27 28 29 31 33 35 36 37 39 40 41 42 42 43 45 47 48 49 49 48 47 46 44 42 40 40 40 40 40 38 36 34 32 29

GEFSCGP_500_meanwind_042.txt.gz
Wind_Speed
7 5 5 5 6 7 8 8 9 12 15 17 19 20 20 20 20 18 13 12 14 15 16 18 19 21 23 24 26 28 30 32 33 35 35 36 37 38 38 38 37 37 36 37
6 4 3 1 3 5 6 7 7 10 12 13 14 16 17 15 12 11 9 8 9 12 15 17 18 20 22 24 26 28 30 31 33 34 35 35 36 36 37 37 37 37 37 36
3 2 3 2 3 6 6 8 9 12 13 14 16 16 17 12 9 7 5 5 8 11 13 16 17 19 20 22 24 26 28 30 31 33 34 34 35 35 36 36 36 36 36 35
4 2 1 2 3 7 9 10 11 12 14 15 16 16 15 9 5 2 2 3 6 9 12 14 16 17 19 21 22 24 26 28 30 31 32 33 34 35 36 36 36 36 36 35
6 3 2 4 6 7 8 8 9 11 12 14 15 15 13 7 6 4 3 4 6 8 11 14 16 18 20 21 23 24 26 27 29 30 32 33 34 34 35 35 35 35 35 35
7 5 4 5 6 8 8 8 9 9 10 11 12 12 14 9 8 7 7 8 9 11 13 15 17 19 21 23 24 26 27 29 30 32 33 34 34 35 35 35 35 35 36 36
6 6 6 6 6 6 8 8 8 7 7 8 9 10 13 11 9 8 9 10 12 14 16 18 20 22 24 26 28 29 31 32 33 34 35 36 36 36 36 36 37 37 37 38
6 5 4 6 5 4 5 8 8 7 7 8 8 10 12 12 11 11 12 14 17 19 20 22 24 26 28 30 31 33 34 35 36 37 37 37 38 38 38 38 38 39 39 39
6 5 4 5 6 5 5 6 6 6 7 8 7 9 11 12 13 14 17 19 21 22 24 25 28 30 31 33 35 36 37 37 37 38 38 38 38 38 39 39 39 39 40 40
7 5 4 5 6 7 7 7 6 5 7 8 10 11 14 14 15 17 19 21 23 24 26 28 31 33 34 36 37 38 38 39 39 38 38 38 39 39 39 40 40 40 41 41
6 5 4 5 6 7 7 7 7 7 9 12 15 16 16 16 17 19 21 23 25 27 29 30 33 35 36 37 38 38 39 39 39 39 39 40 40 40 40 41 41 41 41 41
6 6 6 5 6 8 9 9 8 9 12 15 17 17 17 18 20 21 23 24 26 27 29 32 34 36 36 37 38 39 39 39 39 39 40 41 41 42 42 42 42 42 41 41
6 6 7 6 6 7 10 12 12 13 14 15 17 18 19 20 21 23 24 25 26 28 30 33 35 36 36 37 38 38 38 39 40 41 41 42 43 43 44 43 43 42 41 41
6 7 7 8 9 10 10 12 14 14 14 14 16 17 19 21 22 23 24 25 27 29 31 34 35 36 36 37 38 39 39 40 41 42 43 43 44 44 44 43 42 41 41 40
6 7 8 9 11 12 12 12 13 14 14 14 15 17 19 21 23 23 25 26 28 30 32 34 35 36 37 38 39 40 40 41 42 44 44 45 45 45 44 43 42 41 40 40
6 6 7 9 10 11 11 12 13 14 14 15 17 19 21 23 23 24 25 26 29 31 33 34 36 37 38 39 40 41 42 42 44 45 46 46 46 45 44 43 42 41 40 40
6 5 6 7 9 9 11 12 13 14 15 17 19 21 23 24 24 24 25 26 29 31 33 35 37 38 39 40 41 42 43 44 45 46 47 47 46 45 44 43 42 40 40 41
6 7 7 8 9 10 11 12 13 15 17 18 19 21 23 24 24 24 25 27 30 32 34 36 37 39 40 41 42 43 44 45 46 47 48 48 47 46 44 43 41 41 41 41
8 9 10 11 11 11 13 14 14 17 19 20 22 24 25 25 25 25 26 29 31 33 35 37 38 39 40 41 42 44 45 46 47 48 48 48 47 46 44 42 41 41 41 40
10 11 13 14 13 12 10 13 16 19 20 22 24 24 25 26 26 27 28 30 33 35 37 38 39 40 41 42 43 44 45 46 47 48 49 49 48 46 44 42 42 41 40 39
15 15 16 17 17 16 16 17 19 21 23 23 24 24 25 26 27 28 30 32 34 36 37 38 40 41 42 42 43 45 45 47 48 48 49 49 48 46 44 42 42 41 40 39
19 20 21 21 21 22 21 22 23 23 24 24 24 24 25 26 27 29 31 33 35 37 38 39 41 42 42 43 44 45 45 46 48 48 49 49 48 46 44 43 41 41 40 38
21 23 23 22 22 22 23 25 26 26 25 24 24 24 24 26 28 31 33 34 36 37 39 40 42 42 43 43 44 45 45 46 48 48 49 48 48 46 44 42 41 41 39 37
20 23 25 24 23 24 25 25 26 27 27 25 25 25 25 27 30 32 35 36 37 39 40 42 42 43 43 43 44 45 45 46 48 49 49 48 47 46 44 42 41 40 38 36
19 23 26 26 25 24 24 25 27 28 28 27 27 27 27 28 31 34 36 38 39 41 42 43 43 43 43 43 44 45 45 46 47 49 49 48 47 45 43 41 40 40 38 36
21 26 27 27 26 26 26 27 28 29 30 30 30 30 30 31 33 35 38 40 42 43 43 43 43 43 43 44 44 45 45 46 47 48 48 47 46 45 43 40 40 39 37 36

GEFSCGP_500_meanwind_048.txt.gz
Wind_Speed
7 6 5 4 4 6 8 10 11 12 14 16 17 18 20 22 23 23 24 24 22 20 18 16 15 16 17 18 20 21 23 24 25 27 28 29 30 31 31 32 32 32 33 33
6 5 5 4 3 4 5 6 7 7 9 11 12 14 16 17 18 19 18 16 16 15 14 13 14 16 17 19 20 22 23 25 26 28 29 30 31 32 33 33 33 33 32 32
5 5 4 3 2 3 3 2 3 3 4 5 6 8 10 11 12 12 11 10 10 9 9 11 13 15 17 19 20 22 23 25 27 29 30 31 32 33 33 34 34 33 32 32
5 4 4 3 2 3 2 2 1 1 2 3 4 4 4 4 3 4 4 4 5 6 8 11 13 15 17 18 20 22 24 26 27 29 30 31 31 32 33 33 33 33 32 31
5 4 4 3 2 3 3 3 2 2 2 2 3 4 4 2 0 1 2 3 4 6 8 10 13 15 17 19 21 22 24 25 27 28 28 29 30 30 31 31 31 31 31 31
5 4 4 4 5 5 4 3 3 2 2 1 3 4 5 4 2 1 2 3 5 7 9 11 14 16 17 19 20 21 23 24 25 26 27 28 28 28 29 29 30 30 31 31
6 5 4 5 6 5 4 4 3 3 1 1 1 3 4 4 3 3 4 5 7 9 10 12 14 15 16 18 19 21 22 24 25 26 27 27 27 28 29 29 30 30 31 32
7 6 5 5 6 5 5 5 5 4 3 2 1 2 3 4 5 6 6 7 8 9 11 12 13 15 16 18 20 21 23 25 26 27 27 27 28 29 29 30 30 31 32 33
6 6 5 4 5 5 5 5 5 5 4 2 1 2 4 6 7 7 8 8 9 10 11 12 14 15 17 19 21 23 24 26 27 28 28 28 29 29 30 31 31 32 34 35
7 6 5 5 5 5 5 6 6 5 5 4 2 3 5 7 8 8 9 10 11 11 12 13 14 16 19 21 23 25 26 27 29 29 30 30 30 31 32 33 34 35 37 38
8 7 7 7 6 6 7 8 8 7 6 6 4 5 6 7 8 10 11 11 12 12 13 14 16 19 21 24 26 27 28 29 30 31 31 32 33 34 35 36 37 38 39 40
9 8 8 8 8 8 8 9 9 8 8 7 7 7 7 8 10 11 12 13 13 14 15 17 19 22 24 26 27 29 30 31 32 33 33 34 35 36 37 38 39 41 41 41
10 9 8 9 10 10 11 11 11 11 9 8 8 8 9 10 11 13 14 15 16 17 18 20 22 24 26 27 29 30 32 33 34 35 35 37 38 39 40 40 42 43 43 43
11 11 10 11 13 13 13 13 13 11 9 8 9 11 12 13 14 15 17 18 19 19 20 22 23 25 27 29 30 32 34 35 36 37 37 38 40 41 41 42 44 44 45 44
12 12 12 13 14 15 14 14 13 12 10 11 11 13 15 16 18 19 20 20 21 21 21 23 25 27 29 31 32 34 35 37 38 38 39 40 41 42 43 44 45 46 46 45
12 12 12 13 15 14 13 13 13 12 12 12 13 15 17 19 20 21 21 21 22 22 23 24 26 28 31 32 34 36 37 38 39 40 40 41 42 43 44 45 46 47 47 46
11 11 12 12 13 13 13 13 13 13 13 13 15 17 20 21 22 22 22 22 22 23 24 26 28 30 32 34 36 38 39 40 40 41 41 42 43 44 46 46 47 47 47 46
11 11 12 11 11 12 11 12 12 13 13 14 16 19 21 23 23 23 23 23 24 25 26 28 30 32 34 36 38 40 40 41 41 42 42 43 44 45 47 47 48 48 47 46
12 13 13 13 13 11 10 12 12 12 13 16 18 21 23 23 23 23 23 24 25 26 28 30 32 33 35 37 39 41 41 41 42 42 43 44 45 46 48 48 49 48 47 46
15 15 15 15 14 10 10 12 13 13 14 17 19 21 23 24 24 24 25 26 27 28 29 31 33 35 37 39 40 41 41 42 42 43 44 45 46 47 48 49 49 49 47 45
18 18 18 18 16 13 13 14 14 17 18 18 20 21 23 25 26 26 27 28 29 30 31 33 35 37 39 40 41 41 42 43 43 44 46 47 48 49 49 49 50 49 47 45
20 20 20 20 18 19 18 18 19 20 20 21 22 24 25 26 27 29 30 31 31 32 33 35 37 39 41 41 42 42 43 44 45 46 47 48 49 50 50 50 49 48 46 44
22 23 24 23 21 21 22 22 23 23 24 24 25 26 27 28 29 30 32 33 34 35 36 37 39 41 42 42 42 43 44 45 47 48 49 50 50 50 50 50 49 47 45 43
23 25 27 27 24 25 25 26 26 27 28 28 29 30 30 31 31 32 33 34 36 37 39 40 41 42 43 43 43 44 46 48 49 50 51 51 51 51 51 50 48 46 44 42
23 27 29 29 28 29 28 29 29 29 30 31 32 33 33 33 33 34 34 36 37 39 41 42 42 43 44 45 45 47 48 50 51 53 53 53 52 51 49 48 47 45 43 41
26 30 32 32 31 32 31 31 31 31 32 33 35 35 35 36 35 35 36 37 38 40 41 42 43 44 46 47 49 50 51 52 53 55 55 54 52 50 48 46 45 44 42 40

GEFSCGP_500_meanwind_054.txt.gz
Wind_Speed
13 12 11 9 9 8 7 6 7 7 6 8 11 13 14 16 18 19 19 20 19 17 16 14 12 11 9 9 9 10 11 12 14 15 17 18 19 20 21 21 22 22 23 23
11 10 9 9 8 8 7 7 8 7 6 8 10 13 14 15 16 16 16 16 15 14 13 10 9 7 7 8 9 10 12 13 15 17 19 20 21 22 22 22 22 23 23 23
8 8 8 8 8 7 7 6 7 7 7 8 10 11 11 12 11 11 11 11 10 8 8 7 6 5 7 8 10 12 13 15 17 19 20 21 22 23 23 23 22 22 23 23
7 7 7 7 7 7 6 7 6 7 8 8 9 9 8 8 7 6 5 5 4 3 4 4 4 5 7 9 11 13 15 17 18 19 21 21 22 22 22 22 22 22 22 22
7 7 7 7 7 7 7 7 7 6 6 7 8 8 8 6 6 5 4 3 4 4 3 3 5 7 9 11 13 15 17 18 18 19 20 20 20 21 21 21 21 21 20 20
6 6 7 7 7 8 7 7 6 6 6 7 7 6 7 7 6 6 5 5 4 4 5 5 7 9 10 12 14 15 17 18 19 19 19 20 20 20 21 21 21 21 21 20
9 8 7 7 7 7 6 5 6 7 7 8 7 6 6 6 6 6 7 7 6 6 7 8 9 11 11 13 14 16 17 18 19 19 19 20 20 20 20 21 21 22 22 22
7 8 8 7 7 6 5 3 2 2 5 7 7 7 7 6 6 7 7 8 8 8 10 11 12 12 13 14 15 17 17 18 18 19 19 20 21 21 21 22 22 23 23 24
7 9 9 8 7 5 5 4 4 4 5 6 8 9 9 8 8 8 8 8 9 10 11 12 13 13 14 15 16 17 17 18 19 20 20 21 21 22 23 23 24 24 25 26
9 9 10 8 8 7 6 5 5 4 3 5 9 10 11 10 9 9 9 9 10 11 12 13 13 14 15 15 16 17 18 19 20 21 22 22 23 24 25 25 26 27 27 28
9 8 10 10 9 9 8 7 6 6 6 3 6 10 11 11 10 10 10 10 11 12 13 14 15 15 15 16 17 18 19 20 21 22 23 24 25 25 26 27 28 29 30 31
10 9 9 11 11 11 10 10 9 7 9 9 7 11 13 11 10 10 11 11 12 13 14 14 15 15 16 17 18 19 20 21 22 24 25 26 27 28 29 29 30 31 32 33
12 10 8 10 12 12 12 12 11 11 11 11 8 11 15 13 11 11 12 13 14 14 15 15 15 16 17 18 19 20 21 23 24 26 27 28 29 30 30 31 32 33 35 36
13 12 10 10 12 14 13 14 14 14 12 13 13 13 15 15 14 13 13 14 15 15 15 15 16 17 18 19 20 21 23 24 26 28 29 30 31 32 32 33 35 36 37 39
13 12 12 12 14 14 14 14 16 15 15 14 14 15 16 17 15 15 15 15 16 15 16 16 17 18 19 20 22 23 25 26 28 30 31 31 32 33 34 35 37 38 40 41
13 12 12 12 13 14 13 14 15 15 15 15 15 15 17 17 16 16 16 16 16 16 17 17 18 19 20 22 24 25 27 28 30 31 32 32 33 34 35 37 39 41 42 44
13 12 12 11 13 13 11 13 13 14 14 14 15 16 17 17 17 17 17 17 17 17 18 19 20 21 23 24 26 27 28 30 31 32 33 33 34 35 37 40 42 43 44 46
12 13 12 11 13 12 11 15 13 13 13 14 15 16 17 18 18 19 19 19 19 19 19 20 22 23 25 26 28 29 30 31 32 33 33 34 35 37 40 43 45 46 47 48
14 14 14 13 12 13 13 17 16 14 14 16 17 18 20 20 20 21 20 20 20 20 21 22 24 25 27 28 30 31 32 32 33 34 34 35 37 40 43 45 47 48 49 50
17 17 17 17 15 14 15 21 18 17 15 20 20 21 22 22 21 22 23 22 22 23 24 25 26 28 29 31 32 33 33 34 34 35 36 38 40 42 45 48 49 50 50 50
19 19 19 19 19 17 23 22 20 19 20 22 22 22 23 23 23 24 25 25 25 26 27 27 29 30 32 33 34 35 35 35 36 37 38 41 43 45 48 50 51 51 51 50
20 21 22 22 20 21 26 24 23 23 23 23 23 24 25 25 25 26 27 28 28 30 30 31 32 33 34 35 36 37 37 37 38 39 42 44 46 49 51 52 52 53 53 50
22 23 24 24 24 28 27 26 25 25 24 24 25 26 27 27 28 28 29 30 31 32 33 34 35 36 37 38 39 40 40 40 41 43 45 47 49 50 53 54 54 54 53 49
26 25 26 26 27 28 27 28 27 27 27 27 27 28 29 29 30 31 32 32 33 34 35 36 37 38 40 41 43 43 44 43 44 46 48 49 51 52 55 55 55 53 51 47
29 28 28 29 30 30 30 30 30 30 31 31 31 31 31 32 33 33 34 34 35 36 36 37 39 41 42 45 47 48 47 48 49 49 50 52 54 55 56 56 55 52 49 45
28 29 30 31 32 32 32 32 33 33 33 33 33 33 34 34 35 35 36 36 37 38 38 39 41 43 45 49 52 52 52 52 52 52 53 54 55 56 57 55 52 49 46 43

GEFSCGP_500_meanwind_060.txt.gz
Wind_Speed
13 15 15 13 12 12 12 13 15 13 10 9 12 13 10 3 7 10 14 15 16 15 14 14 13 13 12 10 10 10 9 9 9 10 11 12 13 14 15 15 16 17 18 18
15 15 15 14 11 9 11 13 14 13 11 10 11 10 8 6 6 8 10 12 12 12 12 12 11 9 9 9 9 8 7 8 9 10 11 12 13 13 14 15 15 16 17 18
10 12 14 13 11 11 13 14 13 13 13 11 11 10 9 6 4 5 7 8 8 8 8 8 7 7 7 6 6 6 6 7 8 9 11 12 13 14 14 15 16 17 17 18
9 10 14 13 11 12 14 12 10 10 11 9 8 10 10 8 5 5 4 4 5 5 5 4 4 4 4 4 5 4 5 7 8 10 12 13 14 15 16 17 17 18 19 19
9 11 14 13 12 12 12 10 10 10 11 11 8 9 11 11 9 7 6 5 2 0 1 1 1 1 2 2 2 4 6 7 9 11 13 14 15 16 17 18 19 19 20 20
10 11 12 11 12 11 8 8 11 12 11 9 11 10 11 11 10 8 7 6 4 4 3 2 1 1 1 2 4 5 7 9 11 12 14 16 17 18 19 20 21 22 22 22
14 14 13 10 11 12 10 9 17 20 17 14 13 9 10 11 9 7 6 5 4 4 3 3 2 2 3 4 6 7 9 11 12 14 16 17 18 20 21 22 22 23 23 23
15 15 12 12 12 14 9 6 12 14 14 12 8 9 12 10 9 8 7 6 5 4 4 4 4 5 6 7 8 9 11 12 14 16 17 19 20 20 21 22 23 23 24 24
14 14 14 14 13 12 8 5 6 8 8 7 4 9 10 10 10 10 9 8 7 7 7 7 7 7 8 9 10 11 12 14 15 17 18 20 21 22 23 23 23 24 24 25
14 14 14 16 13 10 8 8 6 3 6 9 9 7 10 14 15 14 11 10 9 9 9 9 10 10 10 11 12 13 14 15 17 18 19 20 21 23 24 24 24 24 25 25
14 14 13 13 10 11 11 8 7 6 5 6 11 10 14 18 19 18 15 13 12 12 12 12 12 13 13 13 14 14 15 17 18 19 21 22 23 24 24 24 24 25 25 26
16 15 14 15 14 13 13 10 10 9 8 6 8 15 15 18 21 21 19 17 16 15 16 16 15 15 15 15 15 15 17 18 19 21 22 23 24 25 25 25 25 26 26 27
17 16 15 16 19 15 12 9 8 10 10 8 9 15 17 18 19 21 20 19 18 17 17 18 17 17 17 17 17 17 17 19 20 22 23 24 25 25 26 27 27 27 28 29
16 16 15 17 18 12 6 5 8 9 10 12 11 14 18 19 20 21 22 21 20 19 18 18 18 18 18 19 19 19 20 21 22 23 24 26 26 27 27 28 28 29 30 32
16 14 14 14 15 13 11 10 11 12 14 15 15 16 18 21 24 24 24 23 22 21 20 19 19 19 20 20 21 21 22 23 24 25 26 28 28 29 30 30 31 31 33 34
18 17 15 14 13 14 13 12 13 14 15 15 16 16 20 24 25 24 23 23 22 22 21 21 20 20 21 21 22 23 23 24 25 27 28 29 30 31 32 32 33 33 35 36
19 19 17 14 12 14 15 14 15 15 15 15 15 17 20 22 23 22 22 22 22 22 22 22 22 22 22 23 24 24 25 26 27 28 30 30 31 32 33 34 35 36 38 39
18 18 17 15 12 13 13 14 13 13 13 15 16 17 19 21 20 20 21 21 21 22 23 23 24 24 24 25 25 26 27 28 29 30 31 32 33 34 36 37 38 40 41 43
18 17 17 15 14 15 17 19 19 17 16 16 16 16 18 20 20 21 22 22 23 23 25 26 26 26 26 27 27 28 29 30 31 32 33 34 35 37 39 40 41 42 44 45
17 18 18 16 16 16 21 24 21 20 19 17 17 18 20 21 21 23 25 26 27 28 28 28 28 29 29 29 29 30 31 32 33 33 34 35 37 40 42 43 44 45 46 47
18 20 20 17 15 17 24 23 21 19 20 18 18 22 25 27 28 28 28 29 30 31 31 31 30 30 31 32 32 32 33 34 35 36 37 38 41 42 43 45 46 47 48 48
21 22 23 22 21 24 26 25 24 24 24 24 25 27 29 30 30 30 31 31 31 32 32 32 32 32 33 33 34 35 35 37 38 40 41 42 44 45 47 48 47 49 50 51
23 23 26 28 28 27 29 29 27 28 29 30 30 31 31 31 32 32 33 33 34 34 34 34 35 35 35 36 37 37 38 40 41 43 45 46 48 49 49 49 50 52 53 53
26 26 28 29 31 32 30 30 30 30 32 32 32 32 33 33 34 34 35 35 36 36 36 36 37 37 38 39 40 41 42 43 45 46 48 50 52 51 51 51 52 53 54 55
28 30 29 30 33 36 34 30 31 33 34 34 34 34 35 35 35 36 36 37 37 37 37 38 39 40 41 42 43 44 45 46 48 49 51 52 53 54 54 53 54 55 55 54
30 31 31 33 34 35 35 35 35 36 36 36 36 36 36 36 37 37 38 38 39 39 40 41 41 42 43 44 45 47 48 49 51 51 53 54 55 55 55 56 56 55 55 53

GEFSCGP_500_meanwind_066.txt.gz
Wind_Speed
7 7 11 14 16 18 20 21 22 19 18 16 15 15 12 10 7 4 2 1 3 4 6 6 6 5 5 5 6 5 5 4 4 4 4 4 5 6 6 8 9 9 9 10
8 8 11 13 15 17 17 19 20 20 19 17 15 14 13 10 6 4 3 0 2 4 3 3 3 3 4 4 4 4 4 4 3 3 3 4 4 5 6 7 8 9 9 9
10 9 10 13 14 15 16 17 18 19 19 17 14 13 11 9 7 5 3 1 2 3 4 2 2 2 3 4 4 4 4 3 3 2 2 3 4 5 6 7 8 8 9 10
9 9 11 11 12 13 15 15 15 16 17 15 11 9 10 9 10 8 5 4 3 3 4 3 3 3 3 3 3 4 3 2 2 2 2 3 4 5 5 6 8 9 10 11
8 10 14 14 13 13 13 12 12 13 15 13 9 8 9 10 10 10 8 7 5 4 3 3 3 4 3 3 3 3 3 2 1 1 2 3 4 5 6 7 9 10 11 12
9 12 15 14 13 13 12 11 10 10 11 10 7 8 9 9 10 10 10 10 8 6 4 4 4 4 4 3 3 3 3 2 1 1 2 3 5 6 7 8 9 10 12 13
10 12 13 14 13 12 12 12 11 10 10 10 6 6 8 8 9 10 9 9 9 7 5 4 4 4 3 3 3 3 3 2 2 2 4 5 6 8 9 10 11 12 13 14
12 12 13 14 13 13 12 12 11 11 10 9 7 5 6 7 8 9 8 7 7 6 4 3 3 2 2 3 3 3 3 2 3 4 5 6 8 9 10 12 13 13 14 14
15 14 14 15 14 13 13 11 12 13 11 8 4 4 4 5 7 7 6 5 5 3 2 2 1 2 3 3 4 4 4 4 5 6 7 8 9 10 11 13 14 15 15 16
16 16 15 15 16 14 14 14 13 13 12 10 7 6 4 4 6 6 5 3 2 2 1 1 1 2 3 3 4 4 5 5 6 7 9 10 11 12 13 14 15 16 17 18
16 17 17 16 16 16 17 17 15 14 13 13 11 8 7 7 6 6 4 3 2 1 1 1 2 3 4 5 5 6 6 7 8 9 11 12 13 14 15 16 17 18 19 20
16 17 18 18 17 18 19 19 16 15 14 15 14 13 10 10 9 8 7 6 5 4 3 3 3 4 5 6 7 8 9 10 11 12 14 15 16 17 18 18 19 20 21 22
16 17 18 17 17 17 18 17 17 16 15 15 15 14 12 13 11 11 11 10 8 7 6 6 6 6 7 8 9 10 12 13 14 16 17 17 19 19 20 21 21 22 23 24
16 17 18 18 15 14 15 16 17 17 16 17 16 14 13 14 15 14 14 13 12 11 9 8 8 9 10 10 11 12 14 15 17 18 19 20 21 22 22 23 24 25 26 26
19 19 19 17 15 14 14 13 13 15 17 18 16 15 15 16 17 15 14 14 14 13 12 11 11 12 12 13 14 15 16 17 19 20 21 22 23 24 25 25 26 27 27 29
22 20 18 16 15 16 16 15 15 16 18 19 18 16 15 16 17 15 15 15 16 15 14 13 14 14 15 16 17 17 18 19 21 22 24 25 26 27 27 28 29 29 30 31
22 22 20 17 16 17 15 14 16 18 18 18 18 17 17 18 16 15 15 16 16 16 15 14 14 15 16 18 20 21 21 22 23 25 26 28 29 29 30 30 31 32 33 34
22 22 21 19 18 18 16 15 17 18 18 20 20 20 20 19 17 16 16 17 18 17 16 16 17 19 20 21 22 23 24 25 26 28 29 30 31 31 32 32 33 34 35 36
23 23 22 21 20 20 19 18 18 19 20 20 19 20 20 21 20 19 17 17 18 19 19 20 22 23 23 24 24 25 27 28 29 31 32 32 33 33 34 35 35 36 37 39
24 24 24 23 23 22 20 19 20 21 21 21 21 21 21 22 22 22 21 19 20 22 24 25 25 26 26 27 27 28 29 31 32 33 34 34 35 36 37 37 38 39 40 41
25 25 25 24 24 22 20 19 19 21 22 22 22 21 22 22 22 23 24 24 24 26 27 27 28 29 30 31 31 32 32 33 34 35 35 36 38 38 39 40 42 43 43 44
26 26 25 25 23 22 21 21 20 22 21 22 21 21 20 21 23 24 24 25 26 28 29 30 31 32 33 34 35 35 36 36 37 37 38 39 40 41 42 43 44 45 46 47
25 25 25 25 24 22 22 23 23 24 24 23 21 19 19 21 22 23 25 27 29 30 31 32 33 34 35 36 37 37 38 38 39 40 41 42 43 44 45 46 47 48 49 49
25 27 28 28 27 26 25 25 27 27 25 23 22 22 22 23 23 24 26 28 30 31 33 34 35 36 37 37 38 39 40 41 42 43 44 46 47 48 49 50 50 51 51 52
27 28 29 29 28 27 27 26 26 26 25 24 24 25 26 27 27 27 28 30 31 32 34 35 36 37 38 39 40 41 43 44 45 46 47 48 50 51 52 52 53 53 54 54
27 29 29 30 30 29 28 28 28 28 27 27 27 28 29 29 30 31 31 32 33 34 35 36 38 39 40 41 42 43 44 46 47 48 50 51 52 53 54 55 55 55 56 56